FW3335 Weather Reports


time (UTC)temp
C
wind
direction
speed
KPH
gust
KPH
rain 1hr
cm
rain 24hr
cm
rain mn
cm
humidity
%
barometer
mb
20260505040039 0 284 0.0 0.0 0.08 0.28 0.28 86 1015.1
20260505034542 0 284 0.0 0.0 0.05 0.25 0.25 85 1015.3
20260505033138 0 284 0.0 0.0 0.08 0.25 0.25 85 1014.8
20260505031537 0 284 0.0 0.0 0.08 0.23 0.23 84 1014.8
20260505030035 0 284 0.0 0.0 0.13 0.20 0.20 82 1014.4
20260505024542 1 284 0.0 0.0 0.18 0.20 0.20 81 1014.5
20260505023041 1 284 1.6 9.7 0.15 0.18 0.18 80 1014.3
20260505021539 2 253 6.4 17.7 0.13 0.15 0.15 79 1013.9
20260505020032 3 297 8.0 20.9 0.05 0.08 0.08 73 1013.3
20260505014537 5 360 4.8 14.5 0.00 0.03 0.03 67 1013.1
20260505013031 5 57 0.0 3.2 0.00 0.03 0.03 65 1012.6
20260505011533 6 57 0.0 0.0 0.00 0.03 0.03 62 1012.2
20260505010029 6 57 0.0 0.0 0.00 0.03 0.03 62 1012.1
20260505004530 6 57 0.0 0.0 0.00 0.03 0.03 63 1012.1
20260505003028 6 57 0.0 1.6 0.00 0.03 0.03 62 1012.1
20260505001534 6 57 0.0 3.2 0.00 0.03 0.03 65 1012.1
20260505000034 5 56 0.0 6.4 0.00 0.03 0.03 69 1012.3
20260504234526 5 71 0.0 4.8 0.03 0.03 0.03 74 1012.7
20260504233028 4 111 0.0 6.4 0.03 0.03 0.03 72 1013.0
20260504231530 4 182 0.0 6.4 0.03 0.03 0.03 74 1013.2
20260504230025 5 138 0.0 6.4 0.03 0.03 0.03 72 1013.1
20260504224527 5 215 4.8 17.7 0.00 0.00 0.00 65 1013.4
20260504223023 8 237 16.1 27.4 0.00 0.00 0.00 44 1012.6
20260504221522 9 277 3.2 16.1 0.00 0.00 0.00 38 1012.1
20260504220023 9 292 1.6 11.3 0.00 0.00 0.00 40 1012.0
20260504214521 8 244 0.0 4.8 0.00 0.00 0.00 41 1012.1
20260504213020 8 238 0.0 12.9 0.00 0.00 0.00 45 1012.2
20260504211518 8 263 3.2 11.3 0.00 0.00 0.00 46 1012.8
20260504210018 9 236 8.0 19.3 0.00 0.00 0.00 41 1012.9
20260504204518 9 279 3.2 9.7 0.00 0.00 0.00 38 1012.9
20260504203022 9 214 4.8 16.1 0.00 0.00 0.00 38 1013.0
20260504201518 9 223 4.8 16.1 0.00 0.00 0.00 34 1012.9
20260504200016 9 225 11.3 20.9 0.00 0.00 0.00 30 1012.7
20260504194528 10 311 3.2 17.7 0.00 0.00 0.00 30 1012.7
20260504193017 10 360 0.0 6.4 0.00 0.00 0.00 30 1012.5
20260504191513 10 360 0.0 4.8 0.00 0.00 0.00 28 1012.6
20260504190010 10 310 1.6 9.7 0.00 0.00 0.00 31 1012.9
20260504184511 9 292 3.2 12.9 0.00 0.00 0.00 38 1013.2
20260504183006 8 38 0.0 9.7 0.00 0.00 0.00 38 1013.5
20260504181504 7 175 6.4 19.3 0.00 0.00 0.00 49 1014.1
20260504180012 7 190 11.3 27.4 0.00 0.00 0.00 49 1014.2
20260504174504 8 257 11.3 29.0 0.00 0.00 0.00 46 1014.4
20260504173010 8 207 8.0 25.7 0.00 0.00 0.00 44 1014.0
20260504171502 8 196 9.7 19.3 0.00 0.00 0.00 42 1013.8
20260504081550 -3 22 0.0 0.0 0.00 0.00 0.00 69 1016.4
20260504044525 1 22 0.0 1.6 0.00 0.00 0.00 54 1017.4
20260504043025 2 22 0.0 0.0 0.00 0.00 0.00 51 1017.8
20260504041525 2 22 0.0 0.0 0.00 0.00 0.00 50 1017.8